Change the Weather History Date:

Wednesday, July 3, 2013

  Actual Average Record
Temperature  
Mean Temperature 59 °F 57 °F  
Max Temperature 64 °F 63 °F 81 °F (1972)
Min Temperature 53 °F 51 °F 44 °F (1986)
Degree Days  
Heating Degree Days 6    
Month to date heating degree days 18 24  
Since 1 June heating degree days 238 322  
Since 1 July heating degree days 18 24  
Cooling Degree Days 0    
Month to date cooling degree days 0  
Year to date cooling degree days 6  
Since 1 June cooling degree days 6  
Growing Degree Days 10 (Base 50)    
Moisture  
Dew Point 51 °F    
Average Humidity 75    
Maximum Humidity 93    
Minimum Humidity 56    
Precipitation  
Precipitation 0.00 in 0.15 in 1.03 in (1957)
Month to date precipitation 0.00 0.45  
Year to date precipitation 43.29 43.75  
Snow  
Snow 0.00 in 0.00 in 0.00 in (2014)
Month to date snowfall 0.0 0.0  
Since 1 June snowfall 0.0 0.0  
Since 1 July snowfall 0.0 0.0  
Snow Depth 0.00 in    
Sea Level Pressure  
Sea Level Pressure 30.19 in    
Wind  
Wind Speed 3 mph (South)    
Max Wind Speed 9 mph    
Max Gust Speed 13 mph    
Visibility 10 miles    
Events      
T = Trace of Precipitation, MM = Missing Value Source: NWS Daily Summary

Daily Weather History Graph

Daily Weather History Graph

Search for Another Location

Airport or City:

Trip Planner

Search our weather history database for the weather conditions in past years. The results will help you decide how hot, cold, wet, or windy it might be!

Date:

Astronomy

Jul. 03, 2013 Rise Set
Actual Time 4:13 AM AKDT 9:27 PM AKDT
Civil Twilight 3:16 AM AKDT 10:23 PM AKDT
Nautical Twilight 1:00 AM AKDT 12:31 AM AKDT
Astronomical Twilight Sun does not rise Sun does not rise
Moon 1:19 AM AKDT (7/3) 5:26 PM AKDT (7/3)
Length of Visible Light 19h 06m
Length of Day
17h 13m
Waning Crescent, 17% of the Moon is Illuminated
Jul 3
Waning Crescent
Jul 7
New
Jul 15
First Quarter
Jul 22
Full
Jul 29
Last Quarter

Hourly Weather History & Observations

Time (AKDT) Temp. Dew Point Humidity Pressure Visibility Wind Dir Wind Speed Gust Speed Precip Events Conditions
12:53 AM 55.9 °F 51.1 °F 84% 30.20 in 10.0 mi Calm Calm - N/A   Overcast
1:53 AM 55.9 °F 50.0 °F 80% 30.19 in 10.0 mi Calm Calm - N/A   Overcast
2:53 AM 55.9 °F 48.9 °F 77% 30.19 in 10.0 mi Calm Calm - N/A   Overcast
3:53 AM 55.9 °F 50.0 °F 80% 30.19 in 10.0 mi Calm Calm - N/A   Overcast
4:53 AM 55.0 °F 51.1 °F 86% 30.19 in 10.0 mi Calm Calm - N/A   Overcast
5:53 AM 57.0 °F 50.0 °F 77% 30.20 in 10.0 mi Calm Calm - N/A   Overcast
6:53 AM 57.9 °F 51.1 °F 78% 30.20 in 10.0 mi Calm Calm - N/A   Overcast
7:53 AM 59.0 °F 50.0 °F 72% 30.21 in 10.0 mi South 5.8 mph - N/A   Overcast
8:53 AM 59.0 °F 48.9 °F 69% 30.21 in 10.0 mi South 5.8 mph - N/A   Overcast
9:53 AM 61.0 °F 48.9 °F 64% 30.21 in 10.0 mi SW 6.9 mph - N/A   Overcast
10:53 AM 60.1 °F 50.0 °F 69% 30.21 in 10.0 mi South 5.8 mph - N/A   Overcast
11:53 AM 62.1 °F 51.1 °F 67% 30.21 in 10.0 mi SSE 6.9 mph - N/A   Overcast
12:54 PM 62.1 °F 51.1 °F 67% 30.21 in 10.0 mi Variable 4.6 mph - N/A   Unknown
1:53 PM 62.1 °F 51.1 °F 67% 30.21 in 10.0 mi SSE 6.9 mph - N/A   Overcast
2:53 PM 62.1 °F 50.0 °F 65% 30.20 in 10.0 mi WSW 6.9 mph - N/A   Overcast
3:53 PM 64.0 °F 48.0 °F 56% 30.19 in 10.0 mi SSE 8.1 mph - N/A   Overcast
4:53 PM 62.1 °F 48.9 °F 62% 30.18 in 10.0 mi SSE 6.9 mph - N/A   Mostly Cloudy
5:53 PM 61.0 °F 52.0 °F 72% 30.17 in 10.0 mi SSW 8.1 mph - N/A   Overcast
6:53 PM 60.1 °F 50.0 °F 69% 30.16 in 10.0 mi Variable 4.6 mph - N/A   Overcast
7:53 PM 59.0 °F 53.1 °F 81% 30.16 in 10.0 mi SSE 3.5 mph - N/A   Overcast
8:53 PM 59.0 °F 53.1 °F 81% 30.16 in 10.0 mi Calm Calm - N/A   Scattered Clouds
9:53 PM 55.9 °F 51.1 °F 84% 30.16 in 10.0 mi Calm Calm - N/A   Scattered Clouds
10:53 PM 55.0 °F 52.0 °F 89% 30.16 in 10.0 mi Calm Calm - N/A   Clear
11:53 PM 54.0 °F 52.0 °F 93% 30.16 in 10.0 mi Calm Calm - N/A   Partly Cloudy